星链-32220 (STARLINK-32220)

导读

STARLINK-32220是美国SpaceX公司星链(Starlink)星座中的一颗卫星,于2024年8月4日发射。星链项目旨在通过在低地球轨道部署大规模卫星星座,为全球提供高速低延迟宽带互联网服务,尤其覆盖基础设施匮乏的偏远地区,推动全球互联网接入普及,STARLINK-32220是星链星座扩容,实现全球网络覆盖的重要组成部分。

Basic Information
目录编号:
60370
目录名称:
STARLINK-32220
国际标识:
2024-138R
轨道中心:
EARTH
卫星名称:
星链-32220 (STARLINK-32220)
卫星全名:
星链-32220 (STARLINK-32220)
卫星状态:
在轨 (已飞行762 天)
发射日期:
2024-08-04 UTC
国别 :
美国 (US)
星等 :
--
Orbit Information
数据来源 国际轨道数据 AOE轨道数据
星历时间 2026-09-05T10:54:44+0800
19小时前
查看轨道信息
2026-09-02T09:00:00+0800
3天前
查看轨道信息
半长轴 6840.896km 6840.859km
偏心率 0.0001545 0.00011
轨道倾角 53.161° 53.159°
近地点辐角 79.756° 64.927°
升交点赤经 195.860° 210.256°
平近点角 280.362° 194.204°
近地点 461.702km 461.969km
远地点 463.816km 463.475km
周期 93.849分钟 93.848分钟
每日圈数 15.343815 15.343938
Detailed Information
卫星平台:
Starlink v2.0 mini
运营商:
太空探索技术公司
运营商所在国:
美国
制造商(研发单位):
太空探索技术公司
制造商所在国:
美国
使用方式:
暂无
Satellite Introduction
星链(Starlink)计划是由太空探索技术公司(SpaceX)提出的一个巨型低轨卫星互联网星座项目,计划在2019年至2024年间在太空搭建由约1.2万颗卫星组成的“星链”网络,其中1584颗将部署在地球上空550千米处的近地轨道,并从2020年开始工作。该卫星仍在工作。
2D Orbit Map
3D Orbit Map
Orbit Altitude Analysis Chart
Orbit Inclination Analysis Chart
Orbit Comprehensive Analysis Chart
View Comprehensive Chart
Conjunction Data List
Event ID Objects TCA Miss Dist (km) Collision Risk Probability Collision Risk Index (CRI) Action
CDM_260908-035506-037006-817621
2026-09-08T
03:55:56+0000
0.404 km
远距离
1.740189E-4 高风险 0.8
CDM_260907-205306-037006-817621
2026-09-07T
20:53:52+0000
0.452 km
远距离
1.347759E-4 高风险 0.78
CDM_260907-133606-037006-521721
2026-09-07T
13:36:11+0000
1.051 km
极远距离
1.974963E-5 中风险 0.61
CDM_260908-013706-037006-823321
2026-09-08T
01:37:13+0000
1.379 km
极远距离
2.671597E-6 低风险 0.44
CDM_260908-053106-037006-823321
2026-09-08T
05:31:42+0000
1.425 km
极远距离
2.409916E-6 低风险 0.43
CDM_260907-032606-037006-521721
2026-09-07T
03:26:34+0000
2.249 km
极远距离
1.911791E-6 低风险 0.41
CDM_260907-015206-037006-521721
2026-09-07T
01:52:47+0000
2.307 km
极远距离
1.812471E-6 低风险 0.4
CDM_260908-084706-037006-688021
2026-09-08T
08:47:23+0000
2.203 km
极远距离
1.479562E-6 低风险 0.38
CDM_260907-222706-037006-817621
2026-09-07T
22:27:39+0000
2.507 km
极远距离
9.104358E-7 极低风险 0.34
CDM_260908-031106-037006-823321
2026-09-08T
03:11:00+0000
2.117 km
极远距离
8.559648E-7 极低风险 0.34